Terminal Aerodrome Forecast
Issued by NWS

Home | Current Version | Previous Version | Graphics & Text | Print | Product List | Glossary On
Versions: 1 2 3 4 5 6 7 8 9 10 11 12
000
FTUS43 KMPX 302300
TAFRWF
TAF
KRWF 302338Z 3100/3124 31007KT P6SM FEW050
     FM310200 VRB03KT P6SM SKC
     FM311500 31006KT P6SM SCT050=

USA.gov is the U.S. government's official web portal to all federal, state and local government web resources and services.